Time,TemperatureF,DewpointF,PressureIn,WindDirection,WindDirectionDegrees,WindSpeedMPH,WindSpeedGustMPH,Humidity,HourlyPrecipIn,Conditions,Clouds,dailyrainin,SoftwareType,DateUTC
2013-06-02 00:09:00,59.7,53.0,29.91,ENE,60,1.0,3.0,78,0.00,,,0.00,weatherlink.com 1.10,2013-06-02 05:09:00,
2013-06-02 00:24:00,59.3,52.0,29.91,NW,323,0.0,9.0,76,0.00,,,0.00,weatherlink.com 1.10,2013-06-02 05:24:00,
2013-06-02 00:39:00,58.8,52.0,29.90,WNW,298,1.0,6.0,77,0.00,,,0.00,weatherlink.com 1.10,2013-06-02 05:39:00,
2013-06-02 00:54:00,58.4,51.0,29.91,WNW,287,5.0,9.0,77,0.00,,,0.00,weatherlink.com 1.10,2013-06-02 05:54:00,
2013-06-02 01:09:00,58.2,51.0,29.91,WNW,290,0.0,8.0,78,0.00,,,0.00,weatherlink.com 1.10,2013-06-02 06:09:00,
2013-06-02 01:24:00,57.8,51.0,29.93,NE,36,0.0,7.0,79,0.00,,,0.00,weatherlink.com 1.10,2013-06-02 06:24:00,
2013-06-02 01:39:00,57.2,51.0,29.92,NNW,331,2.0,4.0,81,0.00,,,0.00,weatherlink.com 1.10,2013-06-02 06:39:00,
2013-06-02 01:54:00,56.9,51.0,29.92,NW,306,0.0,5.0,81,0.00,,,0.00,weatherlink.com 1.10,2013-06-02 06:54:00,
2013-06-02 02:09:00,56.8,51.0,29.92,NW,304,0.0,5.0,81,0.00,,,0.00,weatherlink.com 1.10,2013-06-02 07:09:00,
2013-06-02 02:24:00,57.3,51.0,29.93,WNW,298,2.0,7.0,79,0.00,,,0.00,weatherlink.com 1.10,2013-06-02 07:24:00,
2013-06-02 02:39:00,57.5,51.0,29.93,NW,315,1.0,6.0,78,0.00,,,0.00,weatherlink.com 1.10,2013-06-02 07:39:00,
2013-06-02 02:54:00,57.4,51.0,29.93,WNW,285,0.0,6.0,78,0.00,,,0.00,weatherlink.com 1.10,2013-06-02 07:54:00,
2013-06-02 03:09:00,57.4,51.0,29.93,WNW,297,0.0,2.0,78,0.00,,,0.00,weatherlink.com 1.10,2013-06-02 08:09:00,
2013-06-02 03:24:00,57.3,51.0,29.93,WNW,294,0.0,5.0,78,0.00,,,0.00,weatherlink.com 1.10,2013-06-02 08:24:00,
2013-06-02 03:39:00,56.9,50.0,29.93,WNW,288,0.0,5.0,78,0.00,,,0.00,weatherlink.com 1.10,2013-06-02 08:39:00,
2013-06-02 03:54:00,56.6,50.0,29.94,WNW,284,0.0,5.0,79,0.00,,,0.00,weatherlink.com 1.10,2013-06-02 08:54:00,
2013-06-02 04:09:00,56.6,50.0,29.95,NW,326,2.0,5.0,79,0.00,,,0.00,weatherlink.com 1.10,2013-06-02 09:09:00,
2013-06-02 04:24:00,56.6,50.0,29.95,NW,326,0.0,3.0,79,0.00,,,0.00,weatherlink.com 1.10,2013-06-02 09:24:00,
2013-06-02 04:39:00,56.4,50.0,29.95,NW,315,0.0,5.0,79,0.00,,,0.00,weatherlink.com 1.10,2013-06-02 09:39:00,
2013-06-02 04:54:00,56.3,50.0,29.95,WNW,293,3.0,5.0,79,0.00,,,0.00,weatherlink.com 1.10,2013-06-02 09:54:00,
2013-06-02 05:09:00,56.1,50.0,29.95,NW,308,0.0,7.0,80,0.00,,,0.00,weatherlink.com 1.10,2013-06-02 10:09:00,
2013-06-02 05:24:00,56.0,50.0,29.95,NNW,330,0.0,9.0,80,0.00,,,0.00,weatherlink.com 1.10,2013-06-02 10:24:00,
2013-06-02 05:39:00,56.0,50.0,29.96,WNW,294,0.0,7.0,80,0.00,,,0.00,weatherlink.com 1.10,2013-06-02 10:39:00,
2013-06-02 05:54:00,55.9,50.0,29.96,SW,236,2.0,4.0,80,0.00,,,0.00,weatherlink.com 1.10,2013-06-02 10:54:00,
2013-06-02 06:10:00,55.9,50.0,29.96,West,264,2.0,4.0,80,0.00,,,0.00,weatherlink.com 1.10,2013-06-02 11:10:00,
2013-06-02 06:25:00,55.9,50.0,29.96,West,274,0.0,2.0,81,0.00,,,0.00,weatherlink.com 1.10,2013-06-02 11:25:00,
2013-06-02 06:43:00,55.7,50.0,29.97,NNW,333,1.0,3.0,82,0.00,,,0.00,weatherlink.com 1.10,2013-06-02 11:43:00,
2013-06-02 06:55:00,55.6,50.0,29.98,NW,306,0.0,5.0,81,0.00,,,0.00,weatherlink.com 1.10,2013-06-02 11:55:00,
2013-06-02 07:10:00,55.7,50.0,29.98,NNE,28,0.0,4.0,82,0.00,,,0.00,weatherlink.com 1.10,2013-06-02 12:10:00,
2013-06-02 07:26:00,55.8,50.0,29.99,WNW,297,1.0,5.0,81,0.00,,,0.00,weatherlink.com 1.10,2013-06-02 12:26:00,
2013-06-02 07:40:00,55.8,50.0,29.99,NW,304,1.0,4.0,82,0.00,,,0.00,weatherlink.com 1.10,2013-06-02 12:40:00,
2013-06-02 07:55:00,56.0,50.0,29.99,NW,310,2.0,5.0,81,0.00,,,0.00,weatherlink.com 1.10,2013-06-02 12:55:00,
2013-06-02 08:10:00,56.3,50.0,30.00,NW,305,3.0,7.0,80,0.00,,,0.00,weatherlink.com 1.10,2013-06-02 13:10:00,
2013-06-02 08:25:00,56.1,50.0,30.00,West,276,5.0,7.0,81,0.00,,,0.00,weatherlink.com 1.10,2013-06-02 13:25:00,
2013-06-02 08:40:00,56.4,51.0,30.00,WNW,290,0.0,6.0,81,0.00,,,0.00,weatherlink.com 1.10,2013-06-02 13:40:00,
2013-06-02 08:55:00,56.4,51.0,30.00,NNW,335,0.0,3.0,82,0.00,,,0.00,weatherlink.com 1.10,2013-06-02 13:55:00,
2013-06-02 09:10:00,57.1,51.0,30.01,NW,326,0.0,3.0,81,0.00,,,0.00,weatherlink.com 1.10,2013-06-02 14:10:00,
2013-06-02 09:25:00,56.6,51.0,30.01,NW,312,3.0,7.0,80,0.00,,,0.00,weatherlink.com 1.10,2013-06-02 14:25:00,
2013-06-02 09:40:00,56.8,51.0,30.01,NW,321,0.0,5.0,80,0.00,,,0.00,weatherlink.com 1.10,2013-06-02 14:40:00,
2013-06-02 09:55:00,58.4,51.0,30.01,NNW,337,2.0,4.0,77,0.00,,,0.00,weatherlink.com 1.10,2013-06-02 14:55:00,
2013-06-02 10:10:00,57.6,51.0,30.01,WNW,301,1.0,2.0,79,0.00,,,0.00,weatherlink.com 1.10,2013-06-02 15:10:00,
2013-06-02 10:25:00,57.1,51.0,30.01,WNW,303,0.0,5.0,80,0.00,,,0.00,weatherlink.com 1.10,2013-06-02 15:25:00,
2013-06-02 10:40:00,57.4,50.0,30.02,WNW,295,1.0,3.0,77,0.00,,,0.00,weatherlink.com 1.10,2013-06-02 15:40:00,
2013-06-02 10:56:00,58.2,50.0,30.02,WNW,290,2.0,4.0,74,0.00,,,0.00,weatherlink.com 1.10,2013-06-02 15:56:00,
2013-06-02 11:10:00,57.8,50.0,30.02,WNW,303,2.0,7.0,76,0.00,,,0.00,weatherlink.com 1.10,2013-06-02 16:10:00,
2013-06-02 11:25:00,57.1,50.0,30.02,WNW,293,1.0,9.0,77,0.00,,,0.00,weatherlink.com 1.10,2013-06-02 16:25:00,
2013-06-02 11:40:00,57.0,50.0,30.02,NW,307,0.0,4.0,78,0.00,,,0.00,weatherlink.com 1.10,2013-06-02 16:40:00,
2013-06-02 11:55:00,58.6,51.0,30.02,ESE,114,0.0,3.0,77,0.00,,,0.00,weatherlink.com 1.10,2013-06-02 16:55:00,
2013-06-02 12:10:00,59.3,52.0,30.02,West,264,0.0,3.0,76,0.00,,,0.00,weatherlink.com 1.10,2013-06-02 17:10:00,
2013-06-02 12:25:00,58.8,51.0,30.02,WNW,294,0.0,6.0,76,0.00,,,0.00,weatherlink.com 1.10,2013-06-02 17:25:00,
2013-06-02 12:40:00,58.8,51.0,30.02,WNW,297,1.0,3.0,76,0.00,,,0.00,weatherlink.com 1.10,2013-06-02 17:40:00,
2013-06-02 12:55:00,60.1,51.0,30.02,WNW,303,0.0,5.0,71,0.00,,,0.00,weatherlink.com 1.10,2013-06-02 17:55:00,
2013-06-02 13:10:00,60.7,52.0,30.02,WNW,297,0.0,2.0,73,0.00,,,0.00,weatherlink.com 1.10,2013-06-02 18:10:00,
2013-06-02 13:26:00,60.6,52.0,30.02,NW,306,0.0,4.0,72,0.00,,,0.00,weatherlink.com 1.10,2013-06-02 18:26:00,
2013-06-02 13:41:00,61.3,51.0,30.02,WNW,301,3.0,5.0,69,0.00,,,0.00,weatherlink.com 1.10,2013-06-02 18:41:00,
2013-06-02 13:56:00,62.7,52.0,30.02,NNW,341,2.0,4.0,69,0.00,,,0.00,weatherlink.com 1.10,2013-06-02 18:56:00,
2013-06-02 14:11:00,63.0,51.0,30.02,WNW,288,0.0,4.0,66,0.00,,,0.00,weatherlink.com 1.10,2013-06-02 19:11:00,
2013-06-02 14:26:00,62.6,51.0,30.02,WNW,301,0.0,4.0,67,0.00,,,0.00,weatherlink.com 1.10,2013-06-02 19:26:00,
2013-06-02 14:41:00,63.1,52.0,30.02,WNW,292,2.0,5.0,67,0.00,,,0.00,weatherlink.com 1.10,2013-06-02 19:41:00,
2013-06-02 14:56:00,63.0,51.0,30.02,North,1,0.0,5.0,66,0.00,,,0.00,weatherlink.com 1.10,2013-06-02 19:56:00,
2013-06-02 15:11:00,64.5,50.0,30.02,West,280,0.0,7.0,60,0.00,,,0.00,weatherlink.com 1.10,2013-06-02 20:11:00,
2013-06-02 15:26:00,63.6,50.0,30.01,WNW,292,2.0,5.0,61,0.00,,,0.00,weatherlink.com 1.10,2013-06-02 20:26:00,
2013-06-02 15:41:00,63.9,51.0,30.01,WNW,297,3.0,4.0,63,0.00,,,0.00,weatherlink.com 1.10,2013-06-02 20:41:00,
2013-06-02 15:56:00,63.3,51.0,30.01,North,349,0.0,3.0,64,0.00,,,0.00,weatherlink.com 1.10,2013-06-02 20:56:00,
2013-06-02 16:11:00,63.1,51.0,30.01,NW,304,1.0,6.0,65,0.00,,,0.00,weatherlink.com 1.10,2013-06-02 21:11:00,
2013-06-02 16:26:00,62.7,51.0,30.00,NW,311,0.0,3.0,65,0.00,,,0.00,weatherlink.com 1.10,2013-06-02 21:26:00,
2013-06-02 16:42:00,62.1,49.0,30.00,West,280,0.0,4.0,63,0.00,,,0.00,weatherlink.com 1.10,2013-06-02 21:42:00,
2013-06-02 16:56:00,62.6,50.0,29.99,NE,46,0.0,5.0,63,0.00,,,0.00,weatherlink.com 1.10,2013-06-02 21:56:00,
2013-06-02 17:11:00,62.4,48.0,29.99,WNW,293,0.0,3.0,59,0.00,,,0.00,weatherlink.com 1.10,2013-06-02 22:11:00,
2013-06-02 17:26:00,62.8,49.0,29.98,WNW,294,1.0,4.0,61,0.00,,,0.00,weatherlink.com 1.10,2013-06-02 22:26:00,
2013-06-02 17:41:00,63.5,48.0,29.98,North,9,1.0,4.0,58,0.00,,,0.00,weatherlink.com 1.10,2013-06-02 22:41:00,
2013-06-02 17:56:00,63.8,49.0,29.98,North,359,0.0,5.0,59,0.00,,,0.00,weatherlink.com 1.10,2013-06-02 22:56:00,
2013-06-02 18:11:00,63.1,48.0,29.98,NE,36,0.0,6.0,59,0.00,,,0.00,weatherlink.com 1.10,2013-06-02 23:11:00,
2013-06-02 18:26:00,62.7,48.0,29.98,WNW,287,0.0,5.0,60,0.00,,,0.00,weatherlink.com 1.10,2013-06-02 23:26:00,
2013-06-02 18:41:00,62.5,48.0,29.98,WNW,292,0.0,5.0,59,0.00,,,0.00,weatherlink.com 1.10,2013-06-02 23:41:00,
2013-06-02 18:56:00,62.6,48.0,29.98,WNW,294,0.0,2.0,59,0.00,,,0.00,weatherlink.com 1.10,2013-06-02 23:56:00,
2013-06-02 19:11:00,64.3,49.0,29.97,West,278,0.0,1.0,58,0.00,,,0.00,weatherlink.com 1.10,2013-06-03 00:11:00,
2013-06-02 19:26:00,63.1,49.0,29.97,SE,136,0.0,2.0,60,0.00,,,0.00,weatherlink.com 1.10,2013-06-03 00:26:00,
2013-06-02 19:41:00,61.8,49.0,29.97,SW,229,0.0,0.0,63,0.00,,,0.00,weatherlink.com 1.10,2013-06-03 00:41:00,
2013-06-02 19:56:00,60.6,49.0,29.97,East,81,0.0,0.0,65,0.00,,,0.00,weatherlink.com 1.10,2013-06-03 00:56:00,
2013-06-02 20:11:00,59.5,49.0,29.97,East,80,0.0,0.0,68,0.00,,,0.00,weatherlink.com 1.10,2013-06-03 01:11:00,
2013-06-02 20:26:00,58.4,49.0,29.97,East,80,0.0,0.0,70,0.00,,,0.00,weatherlink.com 1.10,2013-06-03 01:26:00,
2013-06-02 20:41:00,57.1,49.0,29.97,East,81,0.0,0.0,75,0.00,,,0.00,weatherlink.com 1.10,2013-06-03 01:41:00,
2013-06-02 20:56:00,55.9,49.0,29.97,East,81,0.0,0.0,77,0.00,,,0.00,weatherlink.com 1.10,2013-06-03 01:56:00,
2013-06-02 21:11:00,55.0,49.0,29.98,East,80,0.0,0.0,81,0.00,,,0.00,weatherlink.com 1.10,2013-06-03 02:11:00,
2013-06-02 21:26:00,54.2,49.0,29.98,East,80,0.0,0.0,83,0.00,,,0.00,weatherlink.com 1.10,2013-06-03 02:26:00,
2013-06-02 21:41:00,53.3,49.0,29.98,East,81,0.0,0.0,84,0.00,,,0.00,weatherlink.com 1.10,2013-06-03 02:41:00,
2013-06-02 21:56:00,52.5,49.0,29.98,East,81,0.0,0.0,87,0.00,,,0.00,weatherlink.com 1.10,2013-06-03 02:56:00,
2013-06-02 22:11:00,52.1,49.0,29.98,East,81,0.0,0.0,88,0.00,,,0.00,weatherlink.com 1.10,2013-06-03 03:11:00,
2013-06-02 22:26:00,51.7,49.0,29.98,East,80,0.0,0.0,89,0.00,,,0.00,weatherlink.com 1.10,2013-06-03 03:26:00,
2013-06-02 22:41:00,51.7,48.0,29.98,East,81,0.0,0.0,88,0.00,,,0.00,weatherlink.com 1.10,2013-06-03 03:41:00,
2013-06-02 22:56:00,51.1,48.0,29.98,East,80,0.0,0.0,89,0.00,,,0.00,weatherlink.com 1.10,2013-06-03 03:56:00,
2013-06-02 23:11:00,50.8,48.0,29.98,East,81,0.0,0.0,89,0.00,,,0.00,weatherlink.com 1.10,2013-06-03 04:11:00,
2013-06-02 23:26:00,50.6,48.0,29.98,East,80,0.0,0.0,90,0.00,,,0.00,weatherlink.com 1.10,2013-06-03 04:26:00,
2013-06-02 23:41:00,50.1,48.0,29.99,East,81,0.0,0.0,91,0.00,,,0.00,weatherlink.com 1.10,2013-06-03 04:41:00,
2013-06-02 23:57:00,49.5,47.0,29.99,East,81,0.0,0.0,91,0.00,,,0.00,weatherlink.com 1.10,2013-06-03 04:57:00,